Time,TemperatureF,DewpointF,PressureIn,WindDirection,WindDirectionDegrees,WindSpeedMPH,WindSpeedGustMPH,Humidity,HourlyPrecipIn,Conditions,Clouds,dailyrainin,SoftwareType,DateUTC
2013-09-04 00:11:00,69.0,60.0,29.54,WSW,252,0.0,0.0,72,0.00,,,-99.99,,2013-09-04 07:11:00,
2013-09-04 00:22:00,69.0,60.0,29.54,WSW,252,0.0,0.0,72,0.00,,,-99.99,,2013-09-04 07:22:00,
2013-09-04 00:52:00,69.0,60.0,29.54,WSW,252,0.0,0.0,73,0.00,,,-99.99,,2013-09-04 07:52:00,
2013-09-04 01:12:00,68.0,59.0,29.54,WSW,252,0.0,0.0,74,0.00,,,-99.99,,2013-09-04 08:12:00,
2013-09-04 01:22:00,68.0,59.0,29.54,WSW,252,0.0,0.0,74,0.00,,,-99.99,,2013-09-04 08:22:00,
2013-09-04 01:52:00,67.0,59.0,29.54,WSW,252,0.0,0.0,75,0.00,,,-99.99,,2013-09-04 08:52:00,
2013-09-04 02:01:00,67.0,59.0,29.54,WSW,252,0.0,0.0,75,0.00,,,-99.99,,2013-09-04 09:01:00,
2013-09-04 02:11:00,67.0,59.0,29.54,WSW,252,0.0,0.0,75,0.00,,,-99.99,,2013-09-04 09:11:00,
2013-09-04 02:43:00,66.0,59.0,29.55,WSW,252,0.0,0.0,77,0.00,,,-99.99,,2013-09-04 09:43:00,
2013-09-04 02:53:00,66.0,59.0,29.55,WSW,252,0.0,0.0,77,0.00,,,-99.99,,2013-09-04 09:53:00,
2013-09-04 03:03:00,66.0,59.0,29.55,WSW,252,0.0,0.0,77,0.00,,,-99.99,,2013-09-04 10:03:00,
2013-09-04 03:12:00,66.0,59.0,29.55,WSW,252,0.0,0.0,77,0.00,,,-99.99,,2013-09-04 10:12:00,
2013-09-04 03:52:00,66.0,59.0,29.55,WSW,252,0.0,0.0,77,0.00,,,-99.99,,2013-09-04 10:52:00,
2013-09-04 04:02:00,66.0,59.0,29.55,WSW,252,0.0,0.0,77,0.00,,,-99.99,,2013-09-04 11:02:00,
2013-09-04 04:12:00,66.0,59.0,29.55,WSW,252,0.0,0.0,77,0.00,,,-99.99,,2013-09-04 11:12:00,
2013-09-04 04:52:00,66.0,59.0,29.54,WSW,252,0.0,0.0,79,0.00,,,-99.99,,2013-09-04 11:52:00,
2013-09-04 05:11:00,66.0,59.0,29.54,WSW,252,0.0,0.0,79,0.00,,,-99.99,,2013-09-04 12:11:00,
2013-09-04 05:21:00,66.0,59.0,29.54,WSW,252,0.0,0.0,79,0.00,,,-99.99,,2013-09-04 12:21:00,
2013-09-04 05:52:00,65.0,59.0,29.54,WSW,252,0.0,0.0,80,0.00,,,-99.99,,2013-09-04 12:52:00,
2013-09-04 06:21:00,65.0,59.0,29.55,WSW,252,0.0,0.0,81,0.00,,,-99.99,,2013-09-04 13:21:00,
2013-09-04 06:52:00,64.0,58.0,29.55,NW,315,0.0,0.0,81,0.00,,,-99.99,,2013-09-04 13:52:00,
2013-09-04 09:12:00,70.0,61.0,29.58,West,281,0.0,4.0,73,0.00,,,-99.99,,2013-09-04 16:12:00,
2013-09-04 09:23:00,70.0,61.0,29.58,West,281,0.0,4.0,73,0.00,,,-99.99,,2013-09-04 16:23:00,
2013-09-04 09:34:00,70.0,61.0,29.58,West,281,0.0,4.0,73,0.00,,,-99.99,,2013-09-04 16:34:00,
2013-09-04 10:13:00,75.0,62.0,29.58,WSW,249,0.0,2.0,65,0.00,,,-99.99,,2013-09-04 17:13:00,
2013-09-04 10:22:00,75.0,62.0,29.58,WSW,249,0.0,2.0,65,0.00,,,-99.99,,2013-09-04 17:22:00,
2013-09-04 10:34:00,75.0,62.0,29.58,WSW,249,0.0,2.0,65,0.00,,,-99.99,,2013-09-04 17:34:00,
2013-09-04 11:12:00,79.0,62.0,29.58,West,267,1.0,6.0,57,0.00,,,-99.99,,2013-09-04 18:12:00,
2013-09-04 11:21:00,79.0,62.0,29.58,West,267,1.0,6.0,57,0.00,,,-99.99,,2013-09-04 18:21:00,
2013-09-04 11:32:00,79.0,62.0,29.58,West,267,1.0,6.0,57,0.00,,,-99.99,,2013-09-04 18:32:00,
2013-09-04 11:42:00,79.0,62.0,29.58,West,267,1.0,6.0,57,0.00,,,-99.99,,2013-09-04 18:42:00,
2013-09-04 13:11:00,86.0,61.0,29.56,WNW,300,2.0,7.0,43,0.00,,,-99.99,,2013-09-04 20:11:00,
2013-09-04 13:22:00,86.0,61.0,29.56,WNW,300,2.0,7.0,43,0.00,,,-99.99,,2013-09-04 20:22:00,
2013-09-04 13:32:00,86.0,61.0,29.56,WNW,300,2.0,7.0,43,0.00,,,-99.99,,2013-09-04 20:32:00,
2013-09-04 16:13:00,86.0,60.0,29.53,WNW,292,1.0,8.0,41,0.00,,,-99.99,,2013-09-04 23:13:00,
2013-09-04 16:22:00,86.0,60.0,29.53,WNW,292,1.0,8.0,41,0.00,,,-99.99,,2013-09-04 23:22:00,
2013-09-04 16:34:00,86.0,60.0,29.53,WNW,292,1.0,8.0,41,0.00,,,-99.99,,2013-09-04 23:34:00,
2013-09-04 16:42:00,86.0,60.0,29.53,WNW,292,1.0,8.0,41,0.00,,,-99.99,,2013-09-04 23:42:00,
2013-09-04 17:11:00,84.0,60.0,29.52,West,268,1.0,8.0,44,0.00,,,-99.99,,2013-09-05 00:11:00,
2013-09-04 17:22:00,84.0,60.0,29.52,West,268,1.0,8.0,44,0.00,,,-99.99,,2013-09-05 00:22:00,
2013-09-04 17:32:00,84.0,60.0,29.52,West,268,1.0,8.0,44,0.00,,,-99.99,,2013-09-05 00:32:00,
2013-09-04 18:52:00,80.0,59.0,29.52,West,267,0.0,4.0,49,0.00,,,-99.99,,2013-09-05 01:52:00,
2013-09-04 19:02:00,80.0,59.0,29.52,West,267,0.0,4.0,49,0.00,,,-99.99,,2013-09-05 02:02:00,
2013-09-04 19:11:00,80.0,59.0,29.52,West,267,0.0,4.0,49,0.00,,,-99.99,,2013-09-05 02:11:00,
2013-09-04 20:11:00,73.0,60.0,29.53,West,275,0.0,2.0,63,0.00,,,-99.99,,2013-09-05 03:11:00,
2013-09-04 20:22:00,73.0,60.0,29.53,West,275,0.0,2.0,63,0.00,,,-99.99,,2013-09-05 03:22:00,
2013-09-04 20:34:00,73.0,60.0,29.53,West,275,0.0,2.0,63,0.00,,,-99.99,,2013-09-05 03:34:00,
2013-09-04 21:13:00,70.0,59.0,29.54,West,275,0.0,0.0,69,0.00,,,-99.99,,2013-09-05 04:13:00,
2013-09-04 21:24:00,70.0,59.0,29.54,West,275,0.0,0.0,69,0.00,,,-99.99,,2013-09-05 04:24:00,
2013-09-04 21:53:00,69.0,59.0,29.54,West,275,0.0,0.0,71,0.00,,,-99.99,,2013-09-05 04:53:00,
2013-09-04 22:03:00,69.0,59.0,29.54,West,275,0.0,0.0,71,0.00,,,-99.99,,2013-09-05 05:03:00,
2013-09-04 22:12:00,69.0,59.0,29.54,West,275,0.0,0.0,71,0.00,,,-99.99,,2013-09-05 05:12:00,
2013-09-04 22:52:00,68.0,59.0,29.55,West,275,0.0,0.0,74,0.00,,,-99.99,,2013-09-05 05:52:00,
2013-09-04 23:12:00,67.0,59.0,29.55,West,275,0.0,0.0,75,0.00,,,-99.99,,2013-09-05 06:12:00,
2013-09-04 23:21:00,67.0,59.0,29.55,West,275,0.0,0.0,75,0.00,,,-99.99,,2013-09-05 06:21:00,
2013-09-04 23:52:00,66.0,58.0,29.55,West,275,0.0,0.0,76,0.00,,,-99.99,,2013-09-05 06:52:00,